N4EWE-13 Weather Reports


time (UTC)temp
C
wind
direction
speed
KPH
gust
KPH
rain 1hr
cm
rain 24hr
cm
rain mn
cm
humidity
%
barometer
mb
20260504202035 27 259 4.8 12.9 0.00 0.00 0.00 32 1013.9
20260504201055 27 180 1.6 8.0 0.00 0.00 0.00 31 1014.0
20260504200050 27 294 6.4 14.5 0.00 0.00 0.00 31 1014.0
20260504195046 27 34 3.2 11.3 0.00 0.00 0.00 32 1014.0
20260504194045 27 74 6.4 17.7 0.00 0.00 0.00 32 1014.3
20260504193041 27 279 3.2 12.9 0.00 0.00 0.00 32 1014.4
20260504192041 27 167 3.2 12.9 0.00 0.00 0.00 33 1014.6
20260504191114 27 324 4.8 12.9 0.00 0.00 0.00 33 1014.5
20260504190052 27 321 6.4 14.5 0.00 0.00 0.00 33 1014.6
20260504185028 26 293 3.2 14.5 0.00 0.00 0.00 33 1014.6
20260504184051 26 50 4.8 11.3 0.00 0.00 0.00 32 1014.6
20260504183047 26 261 3.2 11.3 0.00 0.00 0.00 32 1014.8
20260504182051 26 174 3.2 9.7 0.00 0.00 0.00 33 1014.9
20260504181130 26 140 3.2 16.1 0.00 0.00 0.00 33 1015.1
20260504180043 26 326 3.2 12.9 0.00 0.00 0.00 32 1015.2
20260504175040 26 239 3.2 11.3 0.00 0.00 0.00 31 1015.3
20260504174042 26 214 4.8 11.3 0.00 0.00 0.00 34 1015.4
20260504173034 25 252 3.2 14.5 0.00 0.00 0.00 33 1015.4
20260504172029 25 231 4.8 11.3 0.00 0.00 0.00 34 1015.4
20260504171055 25 173 4.8 16.1 0.00 0.00 0.00 34 1015.6
20260504151048 20 267 4.8 11.3 0.00 0.00 0.00 50 1016.7
20260504150112 20 302 3.2 9.7 0.00 0.00 0.00 52 1016.6
20260504141101 15 243 3.2 12.9 0.00 0.00 0.00 72 1017.0
20260504081105 7 35 0.0 1.6 0.00 0.00 0.00 83 1017.2
20260504045045 7 44 0.0 0.0 0.00 0.00 0.00 79 1017.6
20260504044046 7 44 0.0 1.6 0.00 0.00 0.00 79 1017.5
20260504043044 7 44 0.0 0.0 0.00 0.00 0.00 78 1017.6
20260504042038 7 44 0.0 0.0 0.00 0.00 0.00 78 1017.6
20260504041048 7 44 0.0 0.0 0.00 0.00 0.00 78 1017.5
20260504040025 7 44 0.0 0.0 0.00 0.00 0.00 77 1017.5
20260504035048 7 44 0.0 1.6 0.00 0.00 0.00 77 1017.5
20260504034029 7 44 0.0 0.0 0.00 0.00 0.00 77 1017.7
20260504033036 7 44 0.0 0.0 0.00 0.00 0.00 76 1017.5
20260504032031 7 44 0.0 0.0 0.00 0.00 0.00 76 1017.5
20260504031051 7 44 0.0 0.0 0.00 0.00 0.00 75 1017.5
20260504030105 8 44 0.0 0.0 0.00 0.00 0.00 74 1017.4
20260504025047 8 44 0.0 0.0 0.00 0.00 0.00 73 1017.3
20260504024029 8 44 0.0 0.0 0.00 0.00 0.00 72 1017.2
20260504023034 8 44 0.0 0.0 0.00 0.00 0.00 71 1017.2
20260504022044 9 44 0.0 0.0 0.00 0.00 0.00 70 1017.2
20260504021130 9 44 0.0 0.0 0.00 0.00 0.00 69 1017.1
20260504020025 10 44 0.0 0.0 0.00 0.00 0.00 68 1017.2
20260504015033 10 44 0.0 0.0 0.00 0.00 0.00 67 1017.2
20260504014037 10 44 0.0 0.0 0.00 0.00 0.00 66 1017.2
20260504013043 11 44 0.0 0.0 0.00 0.00 0.00 64 1017.1
20260504012049 11 44 0.0 0.0 0.00 0.00 0.00 62 1016.9
20260504011105 11 44 0.0 0.0 0.00 0.00 0.00 60 1016.9
20260504010049 12 44 0.0 0.0 0.00 0.00 0.00 58 1016.7
20260504005028 12 44 0.0 0.0 0.00 0.00 0.00 55 1016.6
20260504004038 13 44 0.0 0.0 0.00 0.00 0.00 54 1016.7
20260504003042 13 44 0.0 0.0 0.00 0.00 0.00 52 1016.5
20260504002041 14 44 0.0 0.0 0.00 0.00 0.00 50 1016.5
20260504001102 15 44 0.0 0.0 0.00 0.00 0.00 47 1016.5
20260504000035 15 44 0.0 0.0 0.00 0.00 0.00 47 1016.2
20260503235102 16 44 0.0 0.0 0.00 0.00 0.00 46 1016.2
20260503234040 16 44 0.0 0.0 0.00 0.00 0.00 45 1016.1
20260503233035 16 44 0.0 1.6 0.00 0.00 0.00 41 1016.3
20260503232034 17 44 0.0 1.6 0.00 0.00 0.00 39 1016.2
20260503231054 17 40 1.6 3.2 0.00 0.00 0.00 38 1016.1
20260503230055 18 246 1.6 8.0 0.00 0.00 0.00 38 1016.0
20260503225033 18 209 0.0 4.8 0.00 0.00 0.00 34 1016.1
20260503224032 18 355 1.6 4.8 0.00 0.00 0.00 32 1016.2
20260503223055 19 194 1.6 4.8 0.00 0.00 0.00 33 1016.2
20260503222033 20 30 1.6 11.3 0.00 0.00 0.00 32 1016.2
20260503221111 20 239 1.6 11.3 0.00 0.00 0.00 35 1016.2
20260503220040 20 178 1.6 8.0 0.00 0.00 0.00 32 1016.1
20260503215107 20 177 3.2 11.3 0.00 0.00 0.00 32 1016.2
20260503214046 20 29 1.6 9.7 0.00 0.00 0.00 30 1016.4
20260503213038 20 5 3.2 9.7 0.00 0.00 0.00 30 1016.5
20260503212037 20 236 4.8 12.9 0.00 0.00 0.00 30 1016.5
20260503211048 20 342 4.8 9.7 0.00 0.00 0.00 30 1016.5
20260503210039 20 320 1.6 11.3 0.00 0.00 0.00 31 1016.6
20260503205039 20 184 1.6 9.7 0.00 0.00 0.00 32 1016.6
20260503204039 20 205 3.2 9.7 0.00 0.00 0.00 30 1016.6
20260503203033 19 185 3.2 6.4 0.00 0.00 0.00 32 1016.7